Total_Precipitation_Accumulation
0.00 0.00 0.00 0.00 0.00 0.00 0.00 0.00 0.00 0.00 0.00 0.00 0.00 0.00 0.00 0.00 0.01 0.04 0.11 0.32 0.55 0.59 0.65 0.57 0.35 0.24 0.23 0.33 0.34 0.34 0.34 0.29 0.26 0.26 0.27 0.28 0.26 0.21 0.20 0.20 0.19 0.18 0.15 0.15
0.00 0.00 0.00 0.00 0.00 0.00 0.00 0.00 0.00 0.00 0.00 0.00 0.00 0.00 0.00 0.01 0.01 0.02 0.04 0.10 0.22 0.32 0.35 0.35 0.30 0.31 0.48 0.66 0.65 0.61 0.55 0.49 0.51 0.55 0.58 0.57 0.52 0.42 0.33 0.27 0.21 0.16 0.13 0.13
0.00 0.00 0.00 0.00 0.00 0.00 0.00 0.00 0.00 0.00 0.00 0.00 0.00 0.00 0.00 0.01 0.02 0.06 0.10 0.16 0.21 0.29 0.35 0.40 0.41 0.43 0.50 0.55 0.60 0.70 0.74 0.72 0.74 0.77 0.76 0.70 0.67 0.60 0.46 0.30 0.21 0.17 0.14 0.13
0.00 0.00 0.00 0.00 0.00 0.00 0.00 0.00 0.00 0.00 0.00 0.00 0.00 0.00 0.00 0.00 0.02 0.06 0.12 0.19 0.26 0.31 0.35 0.43 0.47 0.47 0.48 0.50 0.60 0.76 0.86 0.87 0.90 0.93 0.89 0.78 0.65 0.51 0.39 0.29 0.21 0.17 0.14 0.15
0.00 0.00 0.00 0.00 0.00 0.00 0.00 0.00 0.00 0.00 0.00 0.00 0.00 0.00 0.00 0.00 0.01 0.04 0.11 0.19 0.31 0.36 0.38 0.39 0.45 0.47 0.48 0.54 0.65 0.73 0.79 0.82 0.83 0.80 0.77 0.69 0.54 0.40 0.30 0.22 0.19 0.17 0.16 0.20
0.00 0.00 0.00 0.00 0.00 0.00 0.00 0.00 0.00 0.00 0.00 0.00 0.00 0.00 0.00 0.00 0.01 0.05 0.19 0.30 0.42 0.51 0.53 0.53 0.55 0.55 0.56 0.64 0.73 0.78 0.76 0.72 0.67 0.61 0.60 0.53 0.41 0.30 0.21 0.17 0.15 0.12 0.14 0.18
0.00 0.00 0.01 0.01 0.00 0.00 0.00 0.01 0.06 0.03 0.00 0.00 0.00 0.00 0.01 0.02 0.02 0.07 0.24 0.44 0.56 0.55 0.52 0.51 0.52 0.55 0.57 0.57 0.57 0.58 0.54 0.48 0.42 0.37 0.34 0.31 0.24 0.17 0.13 0.13 0.13 0.12 0.12 0.14
0.00 0.01 0.04 0.02 0.01 0.01 0.02 0.05 0.20 0.17 0.04 0.02 0.01 0.01 0.06 0.09 0.12 0.24 0.38 0.49 0.51 0.46 0.43 0.41 0.39 0.38 0.40 0.40 0.39 0.40 0.40 0.39 0.37 0.30 0.23 0.15 0.10 0.07 0.07 0.07 0.09 0.11 0.11 0.11
0.01 0.01 0.02 0.01 0.01 0.02 0.05 0.09 0.11 0.24 0.18 0.12 0.02 0.02 0.09 0.15 0.29 0.52 0.68 0.68 0.60 0.46 0.38 0.33 0.29 0.26 0.25 0.27 0.30 0.34 0.36 0.35 0.34 0.29 0.20 0.11 0.06 0.04 0.04 0.06 0.09 0.12 0.14 0.12
0.01 0.00 0.00 0.00 0.00 0.01 0.03 0.05 0.07 0.20 0.21 0.19 0.06 0.04 0.13 0.35 0.49 0.61 0.71 0.65 0.49 0.37 0.29 0.24 0.21 0.19 0.18 0.19 0.24 0.29 0.32 0.28 0.23 0.18 0.12 0.06 0.03 0.03 0.04 0.04 0.05 0.07 0.09 0.11
0.00 0.00 0.00 0.00 0.00 0.02 0.05 0.08 0.15 0.23 0.22 0.25 0.21 0.17 0.22 0.36 0.51 0.60 0.61 0.50 0.35 0.26 0.19 0.17 0.17 0.18 0.18 0.16 0.19 0.23 0.26 0.26 0.22 0.13 0.07 0.03 0.02 0.02 0.01 0.01 0.04 0.07 0.07 0.08
0.00 0.00 0.00 0.00 0.00 0.01 0.03 0.07 0.16 0.26 0.24 0.24 0.26 0.19 0.13 0.16 0.24 0.32 0.34 0.30 0.25 0.20 0.18 0.20 0.22 0.21 0.18 0.17 0.19 0.20 0.21 0.20 0.17 0.12 0.07 0.03 0.02 0.01 0.00 0.00 0.00 0.01 0.02 0.04
0.00 0.00 0.01 0.01 0.01 0.03 0.03 0.04 0.06 0.10 0.13 0.11 0.13 0.10 0.10 0.17 0.25 0.36 0.46 0.48 0.41 0.32 0.22 0.18 0.20 0.21 0.20 0.20 0.21 0.19 0.17 0.14 0.13 0.11 0.09 0.05 0.01 0.01 0.00 0.00 0.00 0.00 0.00 0.00
0.00 0.00 0.01 0.01 0.01 0.01 0.01 0.01 0.03 0.08 0.15 0.12 0.08 0.04 0.10 0.18 0.28 0.39 0.43 0.39 0.31 0.25 0.20 0.17 0.18 0.21 0.21 0.20 0.17 0.13 0.09 0.08 0.07 0.07 0.08 0.08 0.02 0.01 0.00 0.00 0.00 0.00 0.00 0.00
0.00 0.00 0.00 0.00 0.00 0.00 0.00 0.00 0.00 0.02 0.09 0.16 0.13 0.09 0.11 0.17 0.19 0.23 0.24 0.21 0.17 0.15 0.14 0.14 0.17 0.19 0.20 0.16 0.12 0.09 0.06 0.06 0.05 0.06 0.06 0.08 0.06 0.02 0.01 0.00 0.00 0.00 0.00 0.00
0.00 0.00 0.00 0.00 0.00 0.00 0.00 0.00 0.00 0.01 0.03 0.07 0.10 0.13 0.17 0.17 0.18 0.20 0.18 0.16 0.15 0.15 0.12 0.12 0.13 0.15 0.14 0.10 0.06 0.04 0.04 0.05 0.07 0.08 0.08 0.11 0.12 0.08 0.02 0.01 0.00 0.00 0.00 0.00
0.00 0.00 0.00 0.00 0.00 0.00 0.01 0.00 0.00 0.01 0.01 0.03 0.11 0.18 0.18 0.18 0.18 0.16 0.14 0.12 0.10 0.09 0.07 0.07 0.06 0.05 0.04 0.03 0.03 0.03 0.03 0.03 0.06 0.10 0.11 0.12 0.14 0.15 0.09 0.02 0.01 0.01 0.02 0.03
0.00 0.00 0.00 0.00 0.00 0.03 0.01 0.00 0.00 0.02 0.01 0.01 0.04 0.07 0.08 0.07 0.04 0.03 0.03 0.03 0.03 0.03 0.03 0.02 0.01 0.01 0.01 0.01 0.02 0.05 0.04 0.04 0.06 0.07 0.07 0.07 0.08 0.10 0.10 0.07 0.04 0.04 0.06 0.09
0.00 0.00 0.00 0.00 0.00 0.01 0.00 0.00 0.00 0.02 0.01 0.01 0.01 0.01 0.00 0.01 0.02 0.04 0.01 0.01 0.00 0.00 0.00 0.00 0.01 0.00 0.00 0.01 0.04 0.09 0.09 0.10 0.11 0.11 0.10 0.07 0.05 0.04 0.04 0.04 0.02 0.02 0.03 0.07
0.00 0.00 0.00 0.00 0.00 0.01 0.00 0.00 0.00 0.00 0.01 0.00 0.00 0.00 0.00 0.01 0.06 0.09 0.03 0.01 0.00 0.00 0.00 0.01 0.01 0.01 0.02 0.04 0.07 0.11 0.16 0.17 0.19 0.18 0.14 0.08 0.06 0.06 0.04 0.04 0.02 0.02 0.01 0.02
0.00 0.00 0.00 0.00 0.00 0.00 0.00 0.00 0.00 0.01 0.04 0.01 0.00 0.00 0.00 0.00 0.02 0.03 0.02 0.01 0.00 0.01 0.01 0.01 0.02 0.01 0.04 0.05 0.07 0.12 0.16 0.15 0.15 0.11 0.08 0.06 0.04 0.06 0.09 0.09 0.05 0.04 0.03 0.01
0.00 0.00 0.00 0.00 0.01 0.00 0.00 0.00 0.00 0.01 0.00 0.00 0.00 0.00 0.00 0.00 0.00 0.00 0.00 0.00 0.00 0.00 0.01 0.01 0.03 0.02 0.03 0.03 0.04 0.06 0.07 0.07 0.07 0.05 0.04 0.04 0.03 0.05 0.11 0.19 0.18 0.15 0.11 0.04
0.00 0.00 0.00 0.00 0.00 0.00 0.00 0.00 0.00 0.00 0.00 0.00 0.00 0.00 0.00 0.00 0.00 0.00 0.00 0.00 0.00 0.00 0.00 0.01 0.04 0.04 0.05 0.04 0.06 0.09 0.05 0.02 0.02 0.02 0.02 0.02 0.01 0.02 0.05 0.11 0.15 0.15 0.11 0.05
0.00 0.00 0.00 0.00 0.00 0.00 0.00 0.00 0.00 0.00 0.00 0.00 0.00 0.00 0.00 0.00 0.00 0.00 0.00 0.00 0.00 0.00 0.01 0.02 0.04 0.08 0.11 0.10 0.10 0.10 0.04 0.01 0.01 0.01 0.02 0.02 0.01 0.00 0.00 0.01 0.03 0.05 0.04 0.02
0.00 0.00 0.00 0.00 0.00 0.00 0.00 0.00 0.00 0.00 0.00 0.00 0.00 0.00 0.00 0.00 0.00 0.00 0.00 0.00 0.00 0.00 0.01 0.02 0.04 0.07 0.09 0.11 0.11 0.09 0.06 0.05 0.05 0.03 0.02 0.01 0.01 0.01 0.01 0.01 0.02 0.03 0.03 0.03
0.00 0.00 0.00 0.00 0.00 0.00 0.00 0.00 0.00 0.00 0.00 0.00 0.00 0.00 0.00 0.00 0.00 0.00 0.00 0.00 0.00 0.00 0.00 0.01 0.02 0.05 0.06 0.06 0.05 0.05 0.06 0.07 0.07 0.08 0.06 0.05 0.04 0.05 0.08 0.04 0.01 0.01 0.02 0.01